QPF
0.00 0.00 0.00 0.00 0.00 0.00 0.00 0.00 0.00 0.01 0.02 0.02 0.01 0.01 0.01 0.01 0.01 0.01 0.01 0.02 0.02 0.02 0.02 0.02 0.02 0.01 0.00 0.00 0.00 0.00 0.01 0.01 0.02 0.02 0.01 0.00 0.00 0.01 0.01 0.01 0.01 0.01 0.01
0.00 0.00 0.00 0.00 0.00 0.00 0.00 0.00 0.01 0.02 0.03 0.03 0.02 0.02 0.02 0.01 0.01 0.01 0.01 0.02 0.03 0.02 0.02 0.03 0.02 0.01 0.01 0.01 0.00 0.01 0.01 0.01 0.01 0.02 0.01 0.01 0.00 0.01 0.01 0.01 0.01 0.01 0.01
0.00 0.00 0.01 0.01 0.01 0.00 0.00 0.01 0.01 0.03 0.03 0.03 0.03 0.03 0.03 0.02 0.02 0.01 0.01 0.01 0.02 0.03 0.03 0.03 0.04 0.04 0.03 0.02 0.02 0.02 0.02 0.01 0.01 0.01 0.01 0.01 0.01 0.02 0.02 0.02 0.02 0.02 0.01
0.00 0.00 0.01 0.01 0.01 0.01 0.01 0.01 0.02 0.02 0.02 0.02 0.03 0.03 0.02 0.03 0.02 0.01 0.00 0.00 0.01 0.01 0.03 0.04 0.04 0.04 0.04 0.04 0.02 0.02 0.02 0.02 0.01 0.01 0.01 0.02 0.01 0.01 0.02 0.02 0.02 0.02 0.02
0.00 0.00 0.01 0.02 0.03 0.02 0.03 0.03 0.03 0.04 0.03 0.02 0.03 0.03 0.03 0.04 0.03 0.02 0.01 0.01 0.01 0.01 0.01 0.03 0.05 0.05 0.05 0.05 0.04 0.04 0.04 0.03 0.03 0.02 0.03 0.03 0.03 0.02 0.01 0.01 0.01 0.01 0.02
0.01 0.02 0.02 0.02 0.03 0.04 0.04 0.04 0.04 0.05 0.04 0.03 0.04 0.03 0.04 0.04 0.03 0.03 0.02 0.01 0.01 0.02 0.01 0.02 0.03 0.04 0.06 0.05 0.07 0.07 0.06 0.05 0.04 0.03 0.04 0.04 0.03 0.03 0.02 0.01 0.01 0.01 0.02
0.03 0.03 0.03 0.03 0.03 0.04 0.05 0.05 0.04 0.04 0.05 0.05 0.06 0.05 0.03 0.02 0.03 0.02 0.02 0.02 0.02 0.03 0.02 0.02 0.02 0.02 0.02 0.04 0.05 0.06 0.07 0.08 0.08 0.06 0.05 0.04 0.04 0.03 0.02 0.01 0.01 0.01 0.01
0.07 0.05 0.03 0.04 0.03 0.03 0.04 0.03 0.03 0.04 0.05 0.06 0.07 0.08 0.06 0.04 0.02 0.01 0.01 0.01 0.02 0.02 0.03 0.03 0.03 0.02 0.02 0.03 0.02 0.04 0.06 0.07 0.08 0.08 0.07 0.05 0.03 0.02 0.01 0.01 0.01 0.01 0.01
0.07 0.05 0.04 0.04 0.04 0.03 0.03 0.02 0.03 0.05 0.04 0.05 0.05 0.05 0.02 0.01 0.02 0.01 0.00 0.00 0.01 0.03 0.04 0.03 0.03 0.04 0.03 0.03 0.01 0.02 0.03 0.04 0.06 0.09 0.08 0.06 0.03 0.02 0.01 0.01 0.01 0.01 0.01
0.06 0.06 0.06 0.06 0.06 0.05 0.03 0.02 0.03 0.03 0.03 0.04 0.04 0.03 0.02 0.01 0.01 0.01 0.00 0.01 0.01 0.01 0.02 0.02 0.02 0.02 0.03 0.03 0.03 0.02 0.02 0.03 0.05 0.07 0.07 0.06 0.05 0.03 0.02 0.02 0.01 0.01 0.01
0.08 0.08 0.08 0.08 0.08 0.07 0.06 0.05 0.04 0.04 0.04 0.04 0.03 0.04 0.04 0.03 0.02 0.01 0.00 0.00 0.00 0.01 0.01 0.01 0.01 0.01 0.02 0.03 0.03 0.03 0.02 0.01 0.02 0.03 0.04 0.05 0.06 0.05 0.03 0.02 0.02 0.02 0.02
0.08 0.09 0.11 0.11 0.11 0.09 0.08 0.08 0.08 0.07 0.07 0.05 0.04 0.03 0.03 0.03 0.02 0.02 0.01 0.00 0.00 0.00 0.00 0.00 0.00 0.00 0.01 0.02 0.03 0.02 0.02 0.03 0.03 0.03 0.03 0.04 0.06 0.06 0.05 0.05 0.05 0.05 0.05
0.05 0.09 0.15 0.13 0.13 0.11 0.10 0.11 0.09 0.06 0.06 0.04 0.03 0.03 0.03 0.03 0.02 0.02 0.01 0.01 0.00 0.00 0.00 0.00 0.00 0.00 0.01 0.01 0.02 0.02 0.02 0.03 0.03 0.02 0.02 0.03 0.05 0.05 0.05 0.05 0.05 0.05 0.04
0.07 0.11 0.12 0.13 0.14 0.13 0.12 0.13 0.12 0.09 0.06 0.05 0.05 0.05 0.04 0.04 0.04 0.03 0.02 0.01 0.01 0.00 0.00 0.00 0.00 0.01 0.01 0.01 0.02 0.02 0.02 0.03 0.03 0.02 0.01 0.02 0.02 0.02 0.02 0.03 0.03 0.02 0.02
0.07 0.11 0.10 0.12 0.14 0.13 0.12 0.13 0.12 0.11 0.10 0.08 0.06 0.07 0.06 0.05 0.05 0.04 0.03 0.02 0.02 0.01 0.00 0.00 0.01 0.01 0.02 0.01 0.02 0.03 0.03 0.03 0.03 0.02 0.02 0.02 0.01 0.01 0.01 0.01 0.02 0.01 0.01
0.07 0.08 0.08 0.09 0.11 0.10 0.11 0.13 0.11 0.11 0.12 0.10 0.09 0.09 0.06 0.05 0.06 0.07 0.05 0.04 0.03 0.02 0.01 0.01 0.02 0.02 0.02 0.02 0.03 0.02 0.02 0.03 0.02 0.02 0.02 0.01 0.01 0.00 0.01 0.01 0.01 0.01 0.01
0.07 0.07 0.08 0.10 0.09 0.08 0.08 0.09 0.10 0.10 0.10 0.08 0.09 0.09 0.07 0.09 0.09 0.08 0.08 0.07 0.06 0.05 0.04 0.02 0.03 0.02 0.02 0.02 0.02 0.02 0.02 0.03 0.02 0.02 0.01 0.01 0.01 0.01 0.01 0.01 0.01 0.01 0.02
0.04 0.06 0.07 0.06 0.05 0.05 0.05 0.05 0.07 0.08 0.07 0.05 0.06 0.07 0.06 0.08 0.07 0.07 0.09 0.09 0.07 0.06 0.05 0.03 0.02 0.02 0.02 0.02 0.02 0.02 0.02 0.02 0.02 0.02 0.02 0.01 0.01 0.01 0.01 0.02 0.02 0.02 0.01
0.05 0.06 0.05 0.05 0.04 0.04 0.05 0.04 0.05 0.06 0.05 0.04 0.05 0.07 0.06 0.09 0.10 0.10 0.10 0.08 0.06 0.05 0.04 0.03 0.03 0.03 0.03 0.03 0.02 0.02 0.02 0.02 0.02 0.02 0.02 0.02 0.02 0.02 0.02 0.02 0.02 0.02 0.01
0.05 0.04 0.04 0.05 0.06 0.06 0.06 0.05 0.06 0.05 0.05 0.05 0.05 0.05 0.07 0.10 0.08 0.08 0.09 0.08 0.07 0.06 0.06 0.05 0.04 0.03 0.03 0.02 0.02 0.02 0.02 0.02 0.02 0.02 0.02 0.02 0.02 0.02 0.01 0.01 0.01 0.01 0.01
0.04 0.04 0.04 0.05 0.07 0.08 0.07 0.07 0.07 0.07 0.07 0.06 0.06 0.07 0.07 0.07 0.06 0.07 0.07 0.08 0.08 0.07 0.06 0.05 0.04 0.04 0.03 0.02 0.02 0.03 0.03 0.02 0.02 0.02 0.02 0.02 0.01 0.01 0.01 0.01 0.01 0.01 0.02
0.04 0.04 0.04 0.04 0.05 0.06 0.08 0.07 0.07 0.08 0.08 0.08 0.09 0.09 0.09 0.08 0.08 0.08 0.08 0.07 0.07 0.07 0.06 0.05 0.04 0.04 0.04 0.04 0.05 0.04 0.03 0.02 0.02 0.01 0.01 0.01 0.01 0.01 0.01 0.02 0.03 0.02 0.02
0.02 0.02 0.02 0.02 0.02 0.04 0.06 0.08 0.11 0.12 0.12 0.11 0.12 0.11 0.08 0.06 0.07 0.06 0.07 0.07 0.07 0.06 0.05 0.05 0.04 0.04 0.04 0.05 0.06 0.05 0.04 0.03 0.03 0.03 0.03 0.03 0.02 0.02 0.02 0.03 0.04 0.04 0.04
0.02 0.02 0.02 0.02 0.02 0.04 0.08 0.12 0.13 0.14 0.14 0.13 0.12 0.11 0.09 0.08 0.06 0.05 0.05 0.05 0.04 0.04 0.05 0.05 0.04 0.05 0.05 0.06 0.06 0.05 0.06 0.05 0.05 0.04 0.05 0.04 0.03 0.03 0.04 0.04 0.04 0.05 0.05
0.04 0.03 0.03 0.03 0.03 0.04 0.06 0.07 0.07 0.07 0.07 0.08 0.09 0.10 0.10 0.08 0.08 0.08 0.06 0.06 0.06 0.05 0.07 0.08 0.07 0.07 0.08 0.08 0.08 0.08 0.08 0.07 0.07 0.06 0.06 0.05 0.05 0.05 0.05 0.04 0.04 0.04 0.04
0.05 0.04 0.04 0.05 0.05 0.06 0.08 0.08 0.07 0.05 0.06 0.07 0.08 0.08 0.09 0.08 0.09 0.09 0.08 0.08 0.09 0.08 0.08 0.08 0.08 0.07 0.08 0.09 0.11 0.13 0.13 0.13 0.13 0.11 0.09 0.08 0.07 0.06 0.05 0.05 0.04 0.03 0.03
MSLP
1018.84 1018.98 1019.05 1019.07 1019.07 1019.09 1019.16 1019.27 1019.43 1019.63 1019.84 1020.04 1020.22 1020.37 1020.50 1020.61 1020.72 1020.84 1020.97 1021.11 1021.26 1021.40 1021.53 1021.65 1021.77 1021.88 1022.01 1022.15 1022.30 1022.47 1022.65 1022.82 1023.00 1023.16 1023.31 1023.46 1023.60 1023.75 1023.89 1024.03 1024.15 1024.24 1024.30
1019.00 1019.14 1019.21 1019.24 1019.26 1019.29 1019.36 1019.48 1019.65 1019.85 1020.07 1020.28 1020.46 1020.62 1020.74 1020.84 1020.93 1021.01 1021.11 1021.22 1021.33 1021.46 1021.58 1021.71 1021.83 1021.95 1022.08 1022.22 1022.36 1022.51 1022.66 1022.81 1022.97 1023.13 1023.29 1023.46 1023.62 1023.78 1023.94 1024.07 1024.18 1024.26 1024.30
1019.08 1019.22 1019.31 1019.37 1019.42 1019.48 1019.57 1019.71 1019.88 1020.09 1020.30 1020.51 1020.69 1020.84 1020.96 1021.04 1021.10 1021.16 1021.21 1021.28 1021.36 1021.45 1021.56 1021.68 1021.80 1021.93 1022.06 1022.19 1022.32 1022.45 1022.59 1022.73 1022.87 1023.03 1023.19 1023.37 1023.55 1023.72 1023.88 1024.02 1024.13 1024.20 1024.24
1019.04 1019.21 1019.33 1019.43 1019.53 1019.64 1019.77 1019.92 1020.11 1020.31 1020.52 1020.72 1020.89 1021.03 1021.13 1021.20 1021.24 1021.26 1021.28 1021.31 1021.34 1021.40 1021.48 1021.58 1021.70 1021.82 1021.95 1022.08 1022.20 1022.32 1022.44 1022.56 1022.70 1022.85 1023.01 1023.19 1023.37 1023.55 1023.72 1023.87 1023.97 1024.05 1024.09
1018.89 1019.07 1019.24 1019.41 1019.57 1019.73 1019.91 1020.09 1020.29 1020.49 1020.69 1020.87 1021.03 1021.16 1021.26 1021.31 1021.34 1021.34 1021.32 1021.31 1021.31 1021.32 1021.37 1021.44 1021.53 1021.64 1021.76 1021.88 1022.00 1022.12 1022.23 1022.34 1022.47 1022.60 1022.76 1022.93 1023.11 1023.29 1023.45 1023.59 1023.71 1023.79 1023.84
1018.62 1018.83 1019.06 1019.29 1019.52 1019.74 1019.96 1020.18 1020.38 1020.58 1020.77 1020.94 1021.10 1021.22 1021.32 1021.38 1021.40 1021.38 1021.35 1021.30 1021.25 1021.23 1021.23 1021.26 1021.32 1021.41 1021.51 1021.63 1021.74 1021.86 1021.97 1022.08 1022.19 1022.32 1022.46 1022.61 1022.78 1022.94 1023.10 1023.23 1023.35 1023.43 1023.50
1018.29 1018.52 1018.79 1019.08 1019.37 1019.65 1019.92 1020.16 1020.37 1020.57 1020.75 1020.92 1021.07 1021.21 1021.31 1021.38 1021.41 1021.40 1021.35 1021.27 1021.19 1021.11 1021.06 1021.04 1021.06 1021.11 1021.20 1021.31 1021.42 1021.54 1021.66 1021.77 1021.88 1022.00 1022.12 1022.26 1022.40 1022.54 1022.68 1022.81 1022.92 1023.01 1023.09
1017.92 1018.17 1018.47 1018.80 1019.14 1019.47 1019.76 1020.02 1020.25 1020.44 1020.62 1020.79 1020.95 1021.10 1021.23 1021.33 1021.38 1021.38 1021.32 1021.22 1021.09 1020.96 1020.85 1020.77 1020.74 1020.75 1020.82 1020.91 1021.03 1021.15 1021.28 1021.40 1021.52 1021.64 1021.75 1021.87 1021.99 1022.12 1022.24 1022.35 1022.46 1022.56 1022.65
1017.57 1017.82 1018.13 1018.48 1018.85 1019.20 1019.51 1019.78 1020.01 1020.20 1020.38 1020.55 1020.73 1020.91 1021.07 1021.20 1021.27 1021.28 1021.22 1021.10 1020.93 1020.75 1020.57 1020.43 1020.34 1020.31 1020.34 1020.42 1020.53 1020.67 1020.81 1020.95 1021.08 1021.21 1021.32 1021.44 1021.55 1021.66 1021.77 1021.88 1021.99 1022.09 1022.20
1017.25 1017.48 1017.78 1018.14 1018.51 1018.86 1019.17 1019.43 1019.65 1019.84 1020.02 1020.20 1020.40 1020.60 1020.80 1020.96 1021.06 1021.09 1021.03 1020.89 1020.68 1020.44 1020.20 1019.99 1019.84 1019.76 1019.75 1019.81 1019.92 1020.06 1020.22 1020.38 1020.53 1020.67 1020.80 1020.93 1021.05 1021.17 1021.28 1021.40 1021.51 1021.63 1021.75
1016.94 1017.15 1017.44 1017.77 1018.12 1018.45 1018.74 1018.98 1019.18 1019.36 1019.54 1019.73 1019.94 1020.17 1020.39 1020.59 1020.72 1020.76 1020.70 1020.54 1020.31 1020.02 1019.73 1019.46 1019.25 1019.11 1019.06 1019.09 1019.18 1019.32 1019.49 1019.66 1019.84 1020.01 1020.16 1020.31 1020.46 1020.60 1020.74 1020.88 1021.02 1021.16 1021.29
1016.64 1016.83 1017.08 1017.38 1017.69 1017.98 1018.24 1018.44 1018.62 1018.77 1018.93 1019.12 1019.34 1019.59 1019.83 1020.05 1020.20 1020.26 1020.21 1020.05 1019.79 1019.48 1019.15 1018.83 1018.57 1018.39 1018.30 1018.29 1018.36 1018.48 1018.64 1018.82 1019.01 1019.20 1019.39 1019.57 1019.76 1019.94 1020.12 1020.30 1020.47 1020.64 1020.79
1016.32 1016.48 1016.71 1016.96 1017.22 1017.46 1017.66 1017.82 1017.95 1018.08 1018.22 1018.40 1018.61 1018.86 1019.12 1019.35 1019.51 1019.59 1019.55 1019.40 1019.15 1018.83 1018.48 1018.14 1017.85 1017.63 1017.50 1017.45 1017.48 1017.57 1017.70 1017.87 1018.06 1018.27 1018.48 1018.71 1018.94 1019.17 1019.41 1019.63 1019.84 1020.04 1020.22
1015.96 1016.11 1016.30 1016.51 1016.71 1016.89 1017.04 1017.14 1017.23 1017.31 1017.42 1017.56 1017.76 1017.99 1018.24 1018.47 1018.65 1018.74 1018.72 1018.60 1018.37 1018.08 1017.75 1017.41 1017.12 1016.88 1016.71 1016.62 1016.61 1016.65 1016.74 1016.88 1017.05 1017.26 1017.48 1017.74 1018.01 1018.29 1018.57 1018.85 1019.11 1019.34 1019.55
1015.58 1015.72 1015.88 1016.05 1016.20 1016.32 1016.40 1016.45 1016.48 1016.51 1016.57 1016.67 1016.83 1017.03 1017.25 1017.47 1017.64 1017.74 1017.75 1017.66 1017.49 1017.24 1016.96 1016.66 1016.39 1016.16 1015.98 1015.86 1015.79 1015.78 1015.82 1015.91 1016.04 1016.22 1016.44 1016.71 1017.00 1017.32 1017.65 1017.97 1018.26 1018.53 1018.77
1015.20 1015.34 1015.48 1015.61 1015.72 1015.78 1015.81 1015.79 1015.76 1015.73 1015.73 1015.77 1015.87 1016.01 1016.19 1016.37 1016.52 1016.63 1016.66 1016.62 1016.50 1016.33 1016.12 1015.89 1015.66 1015.46 1015.29 1015.15 1015.05 1014.99 1014.97 1015.00 1015.08 1015.22 1015.42 1015.67 1015.97 1016.30 1016.65 1017.00 1017.33 1017.63 1017.89
1014.87 1015.02 1015.15 1015.26 1015.32 1015.34 1015.31 1015.24 1015.15 1015.05 1014.97 1014.94 1014.95 1015.01 1015.11 1015.23 1015.34 1015.43 1015.48 1015.47 1015.41 1015.32 1015.19 1015.05 1014.90 1014.75 1014.61 1014.48 1014.36 1014.27 1014.20 1014.17 1014.19 1014.28 1014.44 1014.66 1014.95 1015.28 1015.64 1016.00 1016.35 1016.67 1016.96
1014.63 1014.79 1014.92 1015.01 1015.05 1015.03 1014.96 1014.83 1014.68 1014.51 1014.35 1014.22 1014.14 1014.10 1014.10 1014.12 1014.17 1014.21 1014.23 1014.24 1014.23 1014.20 1014.16 1014.10 1014.03 1013.95 1013.86 1013.76 1013.66 1013.55 1013.45 1013.38 1013.36 1013.41 1013.52 1013.71 1013.97 1014.29 1014.64 1015.00 1015.36 1015.71 1016.02
1014.50 1014.68 1014.81 1014.89 1014.91 1014.87 1014.75 1014.58 1014.37 1014.13 1013.89 1013.66 1013.46 1013.30 1013.18 1013.10 1013.04 1013.00 1012.97 1012.96 1012.96 1012.97 1012.98 1013.00 1013.01 1013.00 1012.97 1012.92 1012.85 1012.76 1012.66 1012.58 1012.54 1012.56 1012.65 1012.81 1013.05 1013.35 1013.69 1014.06 1014.43 1014.79 1015.14
1014.47 1014.66 1014.80 1014.88 1014.89 1014.82 1014.68 1014.47 1014.21 1013.91 1013.59 1013.26 1012.95 1012.67 1012.41 1012.19 1012.00 1011.85 1011.74 1011.67 1011.63 1011.63 1011.67 1011.72 1011.78 1011.84 1011.88 1011.89 1011.87 1011.82 1011.76 1011.70 1011.68 1011.70 1011.79 1011.95 1012.18 1012.47 1012.81 1013.19 1013.57 1013.96 1014.35
1014.51 1014.71 1014.85 1014.92 1014.93 1014.85 1014.69 1014.46 1014.16 1013.81 1013.42 1013.01 1012.60 1012.20 1011.81 1011.44 1011.11 1010.83 1010.59 1010.41 1010.30 1010.25 1010.25 1010.31 1010.39 1010.48 1010.57 1010.64 1010.68 1010.70 1010.70 1010.70 1010.73 1010.79 1010.91 1011.10 1011.35 1011.66 1012.02 1012.41 1012.83 1013.25 1013.68
1014.56 1014.76 1014.91 1014.98 1014.98 1014.89 1014.72 1014.47 1014.15 1013.77 1013.34 1012.87 1012.38 1011.88 1011.37 1010.88 1010.40 1009.97 1009.59 1009.28 1009.05 1008.90 1008.83 1008.83 1008.89 1008.99 1009.11 1009.22 1009.32 1009.41 1009.49 1009.58 1009.68 1009.82 1010.01 1010.25 1010.56 1010.92 1011.32 1011.75 1012.20 1012.66 1013.14
1014.60 1014.79 1014.93 1014.99 1014.99 1014.90 1014.72 1014.47 1014.14 1013.75 1013.30 1012.81 1012.27 1011.70 1011.11 1010.50 1009.91 1009.34 1008.81 1008.35 1007.98 1007.70 1007.51 1007.43 1007.43 1007.49 1007.60 1007.73 1007.88 1008.04 1008.20 1008.38 1008.58 1008.81 1009.09 1009.43 1009.81 1010.24 1010.70 1011.19 1011.69 1012.20 1012.72
1014.58 1014.76 1014.88 1014.94 1014.92 1014.82 1014.65 1014.40 1014.09 1013.71 1013.27 1012.78 1012.23 1011.64 1011.00 1010.33 1009.64 1008.96 1008.31 1007.71 1007.19 1006.76 1006.45 1006.24 1006.15 1006.14 1006.21 1006.34 1006.51 1006.71 1006.95 1007.21 1007.51 1007.84 1008.23 1008.66 1009.13 1009.64 1010.18 1010.73 1011.29 1011.85 1012.41
1014.52 1014.68 1014.78 1014.82 1014.79 1014.69 1014.52 1014.28 1013.99 1013.64 1013.23 1012.77 1012.25 1011.67 1011.04 1010.34 1009.61 1008.86 1008.11 1007.40 1006.75 1006.20 1005.75 1005.41 1005.20 1005.11 1005.12 1005.21 1005.37 1005.59 1005.87 1006.19 1006.57 1007.00 1007.47 1008.00 1008.56 1009.15 1009.76 1010.38 1010.99 1011.59 1012.18
1014.47 1014.60 1014.68 1014.70 1014.65 1014.53 1014.36 1014.14 1013.87 1013.56 1013.20 1012.80 1012.33 1011.80 1011.20 1010.52 1009.79 1009.01 1008.22 1007.43 1006.70 1006.03 1005.47 1005.02 1004.70 1004.51 1004.44 1004.47 1004.60 1004.81 1005.10 1005.45 1005.88 1006.37 1006.91 1007.50 1008.13 1008.79 1009.46 1010.13 1010.78 1011.40 1011.99
Thickness
5749 5748 5747 5746 5745 5744 5743 5742 5741 5740 5739 5738 5737 5737 5735 5734 5732 5731 5730 5728 5727 5725 5724 5722 5720 5719 5717 5716 5714 5713 5711 5710 5708 5706 5705 5704 5702 5701 5700 5699 5698 5697 5696
5747 5746 5745 5744 5743 5743 5742 5741 5740 5739 5738 5737 5737 5736 5735 5733 5732 5730 5729 5728 5726 5725 5723 5722 5721 5719 5717 5716 5714 5713 5711 5710 5708 5706 5705 5704 5702 5701 5700 5698 5697 5696 5695
5747 5745 5744 5743 5742 5741 5741 5740 5739 5738 5737 5736 5735 5735 5734 5733 5732 5730 5729 5727 5726 5725 5723 5722 5721 5719 5718 5716 5715 5713 5711 5710 5708 5707 5705 5704 5702 5701 5700 5699 5697 5696 5695
5747 5745 5743 5742 5741 5740 5739 5738 5737 5736 5735 5734 5734 5734 5733 5732 5731 5730 5728 5727 5726 5725 5724 5723 5721 5720 5719 5717 5715 5714 5712 5710 5708 5707 5706 5704 5703 5701 5700 5699 5698 5697 5696
5747 5745 5743 5742 5740 5739 5738 5738 5736 5734 5733 5732 5732 5732 5732 5731 5730 5730 5729 5727 5726 5725 5724 5723 5722 5721 5719 5718 5717 5715 5713 5711 5710 5708 5706 5705 5704 5702 5701 5700 5699 5697 5696
5747 5744 5742 5741 5739 5738 5736 5736 5734 5733 5732 5731 5731 5730 5730 5730 5730 5729 5729 5728 5727 5726 5725 5724 5723 5722 5721 5720 5718 5716 5715 5713 5711 5710 5708 5706 5705 5703 5702 5701 5699 5698 5697
5747 5744 5742 5741 5739 5737 5736 5735 5733 5731 5730 5729 5727 5725 5727 5729 5729 5729 5729 5728 5727 5727 5726 5725 5724 5723 5722 5721 5720 5718 5717 5715 5713 5712 5710 5708 5707 5705 5704 5702 5701 5699 5698
5747 5744 5742 5741 5739 5737 5736 5734 5733 5730 5729 5728 5725 5721 5719 5722 5727 5731 5730 5729 5729 5728 5727 5726 5725 5724 5723 5722 5721 5720 5718 5717 5715 5714 5712 5710 5709 5707 5705 5704 5702 5701 5699
5747 5745 5743 5741 5740 5738 5736 5735 5733 5730 5727 5727 5727 5723 5717 5715 5721 5727 5729 5730 5730 5729 5729 5728 5727 5726 5724 5723 5723 5722 5721 5719 5717 5716 5714 5712 5710 5709 5707 5705 5703 5702 5700
5747 5745 5743 5742 5740 5738 5736 5735 5734 5732 5730 5726 5726 5726 5725 5723 5719 5720 5726 5729 5730 5730 5730 5729 5729 5728 5727 5725 5724 5724 5722 5721 5719 5718 5716 5714 5712 5711 5709 5707 5705 5703 5702
5748 5746 5744 5742 5740 5738 5737 5735 5734 5733 5732 5729 5727 5725 5723 5722 5722 5719 5719 5724 5727 5731 5732 5731 5730 5729 5729 5728 5726 5725 5724 5723 5721 5720 5718 5716 5714 5712 5711 5709 5707 5705 5703
5748 5747 5744 5742 5740 5738 5736 5735 5735 5733 5732 5731 5729 5727 5725 5723 5721 5720 5719 5720 5723 5728 5731 5732 5732 5731 5731 5729 5728 5727 5726 5725 5723 5721 5719 5718 5716 5714 5712 5710 5708 5706 5705
5746 5746 5745 5743 5741 5739 5737 5736 5735 5734 5733 5731 5730 5729 5728 5728 5727 5724 5721 5720 5721 5725 5728 5731 5733 5732 5732 5731 5730 5729 5727 5726 5724 5722 5721 5719 5717 5715 5713 5711 5709 5708 5706
5748 5747 5745 5743 5742 5740 5739 5737 5735 5734 5733 5732 5732 5731 5729 5729 5728 5727 5724 5721 5718 5720 5723 5728 5732 5732 5732 5731 5731 5729 5728 5727 5725 5723 5721 5720 5718 5716 5714 5712 5710 5708 5706
5748 5747 5746 5744 5742 5741 5739 5738 5736 5735 5733 5732 5732 5731 5730 5730 5729 5728 5727 5724 5719 5716 5719 5725 5728 5731 5730 5730 5730 5728 5728 5727 5725 5724 5722 5720 5718 5716 5714 5712 5710 5708 5706
5748 5746 5745 5743 5742 5741 5739 5738 5736 5735 5733 5732 5731 5729 5729 5729 5728 5727 5726 5724 5723 5720 5719 5724 5725 5728 5728 5728 5728 5726 5726 5725 5724 5723 5721 5719 5717 5715 5713 5711 5709 5707 5705
5746 5745 5743 5742 5741 5740 5739 5737 5736 5735 5733 5732 5731 5730 5729 5729 5727 5726 5725 5723 5721 5719 5717 5722 5723 5724 5724 5724 5725 5724 5723 5722 5722 5721 5719 5717 5715 5713 5711 5709 5707 5705 5703
5745 5744 5742 5741 5740 5739 5738 5737 5736 5735 5734 5732 5731 5730 5729 5728 5727 5726 5724 5722 5720 5719 5717 5716 5719 5719 5720 5721 5721 5720 5720 5720 5719 5718 5717 5715 5713 5711 5709 5707 5705 5703 5701
5743 5742 5740 5739 5738 5738 5737 5736 5735 5734 5733 5732 5731 5730 5729 5727 5725 5724 5723 5721 5719 5718 5716 5714 5715 5716 5716 5716 5716 5716 5716 5715 5715 5714 5713 5712 5711 5709 5707 5705 5702 5700 5698
5740 5738 5738 5737 5736 5736 5735 5734 5733 5732 5731 5731 5730 5729 5728 5726 5725 5723 5721 5719 5717 5715 5713 5711 5711 5711 5711 5711 5710 5710 5710 5710 5710 5710 5709 5708 5707 5705 5703 5701 5699 5697 5694
5737 5736 5735 5734 5733 5732 5732 5731 5731 5730 5729 5728 5727 5726 5726 5725 5724 5722 5720 5718 5715 5712 5710 5708 5707 5707 5706 5705 5705 5705 5704 5704 5704 5704 5703 5702 5701 5699 5697 5695 5693 5692 5689
5732 5732 5731 5729 5728 5728 5727 5727 5727 5726 5725 5724 5723 5722 5721 5720 5720 5719 5717 5715 5713 5710 5707 5705 5704 5703 5703 5702 5701 5700 5698 5697 5696 5698 5695 5695 5694 5692 5691 5689 5688 5686 5684
5727 5726 5725 5724 5723 5723 5722 5722 5722 5721 5720 5719 5718 5717 5716 5715 5714 5714 5712 5711 5708 5706 5704 5702 5700 5699 5698 5698 5696 5695 5693 5691 5691 5691 5687 5687 5687 5685 5684 5682 5681 5679 5677
5722 5721 5720 5718 5717 5717 5716 5716 5715 5714 5713 5712 5711 5710 5709 5708 5708 5707 5706 5704 5702 5700 5699 5698 5696 5695 5694 5692 5691 5690 5688 5685 5684 5682 5680 5678 5678 5676 5676 5674 5672 5670 5668
5716 5715 5713 5712 5711 5710 5709 5709 5709 5707 5705 5704 5703 5702 5701 5701 5700 5700 5699 5697 5695 5693 5692 5690 5689 5687 5686 5684 5683 5681 5678 5675 5674 5673 5670 5668 5669 5667 5666 5665 5663 5661 5659
5710 5708 5707 5706 5704 5703 5702 5702 5702 5700 5698 5696 5694 5693 5692 5692 5691 5691 5690 5688 5686 5684 5683 5682 5680 5678 5676 5675 5673 5671 5669 5665 5664 5663 5661 5658 5658 5655 5654 5654 5652 5650 5648